Bloomington, IN

7:46 AM EST on February 26, 2017 (GMT -0500)
Monroe County

Weather History for KBMG - July, 2013

Change the Weather History Date:

Saturday, July 13, 2013

  Actual Average Record
Temperature  
Mean Temperature 72 °F 74 °F  
Max Temperature 84 °F 84 °F 93 °F (1997)
Min Temperature 60 °F 64 °F 55 °F (2001)
Degree Days  
Heating Degree Days 0 0  
Month to date heating degree days 0 0  
Since 1 June heating degree days 7 15  
Since 1 July heating degree days 0 0  
Cooling Degree Days 7 9  
Month to date cooling degree days 95 117  
Year to date cooling degree days 438 407  
Since 1 June cooling degree days 319 325  
Growing Degree Days 22 (Base 50)    
Moisture  
Dew Point 63 °F    
Average Humidity 74    
Maximum Humidity 100    
Minimum Humidity 47    
Precipitation  
Precipitation 0.26 in 0.18 in 0.65 in (2004)
Month to date precipitation 1.05 2.18  
Year to date precipitation 25.63 26.96  
Sea Level Pressure  
Sea Level Pressure 30.08 in    
Wind  
Wind Speed 6 mph (ENE)    
Max Wind Speed 23 mph    
Max Gust Speed 28 mph    
Visibility 6 miles    
Events Fog , Rain    
T = Trace of Precipitation, MM = Missing Value Source: NWS Daily Summary

Daily Weather History Graph

Daily Weather History Graph

Search for Another Location

Airport or City:

Trip Planner

Search our weather history database for the weather conditions in past years. The results will help you decide how hot, cold, wet, or windy it might be!

Date:

Astronomy

Jul. 13, 2013 Rise Set
Actual Time 6:31 AM EDT 9:12 PM EDT
Civil Twilight 6:00 AM EDT 9:44 PM EDT
Nautical Twilight 5:20 AM EDT 10:23 PM EDT
Astronomical Twilight 4:36 AM EDT 11:07 PM EDT
Moon 11:44 AM EDT (7/13) 11:56 PM EDT (7/13)
Length of Visible Light 15h 44m
Length of Day
14h 41m
Waxing Crescent, 25% of the Moon is Illuminated
Jul 13
Waxing Crescent
Jul 15
First Quarter
Jul 22
Full
Jul 29
Last Quarter
Aug 6
New

Hourly Weather History & Observations

Time (EDT) Temp. Heat Index Dew Point Humidity Pressure Visibility Wind Dir Wind Speed Gust Speed Precip Events Conditions
12:53 AM 63.0 °F - 59.0 °F 87% 30.07 in 10.0 mi North 4.6 mph - N/A   Clear
1:53 AM 63.0 °F - 57.9 °F 84% 30.07 in 10.0 mi North 3.5 mph - N/A   Clear
2:53 AM 62.1 °F - 57.9 °F 86% 30.06 in 10.0 mi North 4.6 mph - N/A   Clear
3:53 AM 64.0 °F - 57.9 °F 80% 30.06 in 10.0 mi NNE 4.6 mph - N/A   Clear
4:53 AM 64.0 °F - 59.0 °F 84% 30.06 in 10.0 mi NE 4.6 mph - N/A   Clear
5:53 AM 61.0 °F - 59.0 °F 93% 30.07 in 10.0 mi Calm Calm - N/A   Clear
6:53 AM 61.0 °F - 59.0 °F 93% 30.07 in 10.0 mi Calm Calm - N/A   Clear
7:53 AM 61.0 °F - 60.1 °F 97% 30.10 in 10.0 mi Calm Calm - N/A   Clear
8:53 AM 66.9 °F - 61.0 °F 81% 30.08 in 10.0 mi ENE 5.8 mph - N/A   Clear
9:53 AM 73.0 °F - 61.0 °F 66% 30.09 in 10.0 mi NE 6.9 mph - N/A   Mostly Cloudy
10:53 AM 75.9 °F - 60.1 °F 58% 30.09 in 10.0 mi NNE 9.2 mph - N/A   Clear
11:53 AM 78.1 °F - 59.0 °F 52% 30.10 in 10.0 mi East 8.1 mph - N/A   Partly Cloudy
12:53 PM 80.1 °F 80.7 °F 59.0 °F 48% 30.09 in 10.0 mi ENE 8.1 mph - N/A   Partly Cloudy
1:53 PM 82.0 °F 82.4 °F 60.1 °F 47% 30.08 in 10.0 mi East 9.2 mph - N/A   Partly Cloudy
2:53 PM 82.9 °F 83.2 °F 60.1 °F 46% 30.06 in 10.0 mi East 8.1 mph - N/A   Partly Cloudy
3:53 PM 82.9 °F 83.3 °F 61.0 °F 47% 30.05 in 10.0 mi ENE 6.9 mph - N/A   Scattered Clouds
4:53 PM 82.9 °F 83.7 °F 62.1 °F 49% 30.04 in 10.0 mi ESE 11.5 mph - N/A   Scattered Clouds
5:53 PM 82.9 °F 83.2 °F 60.1 °F 46% 30.05 in 10.0 mi East 12.7 mph - N/A   Partly Cloudy
6:53 PM 81.0 °F 81.7 °F 61.0 °F 50% 30.04 in 10.0 mi East 10.4 mph - N/A   Clear
7:53 PM 81.0 °F 82.7 °F 64.9 °F 58% 30.06 in 6.0 mi ESE 19.6 mph 27.6 mph 0.02 in Rain Light Rain
7:58 PM 73.4 °F - 64.4 °F 73% 30.09 in 1.2 mi ESE 11.5 mph 27.6 mph 0.17 in Rain Heavy Rain
8:06 PM 71.6 °F - 66.2 °F 83% 30.08 in 0.8 mi Calm Calm - 0.24 in Rain Light Rain
8:09 PM 71.6 °F - 68.0 °F 88% 30.08 in 2.0 mi Calm Calm - 0.24 in Rain Light Rain
8:16 PM 71.6 °F - 69.8 °F 94% 30.08 in 10.0 mi Calm Calm - 0.24 in   Scattered Clouds
8:53 PM 70.0 °F - 68.0 °F 93% 30.07 in 3.0 mi Calm Calm - 0.24 in   Clear
9:10 PM 69.8 °F - 68.0 °F 94% 30.09 in 1.8 mi Calm Calm - N/A   Clear
9:35 PM 66.2 °F - 66.2 °F 100% 30.09 in 3.0 mi Calm Calm - N/A   Clear
9:49 PM 68.0 °F - 66.2 °F 94% 30.09 in 1.8 mi Calm Calm - N/A   Clear
9:53 PM 68.0 °F - 66.9 °F 96% 30.08 in 1.2 mi Calm Calm - N/A   Clear
10:09 PM 66.2 °F - 66.2 °F 100% 30.10 in 3.0 mi Calm Calm - N/A   Clear
10:28 PM 66.2 °F - 66.2 °F 100% 30.11 in 1.8 mi Calm Calm - N/A   Clear
10:48 PM 66.2 °F - 66.2 °F 100% 30.11 in 0.8 mi Calm Calm - N/A   Clear
10:53 PM 66.0 °F - 66.0 °F 100% 30.10 in 1.5 mi Calm Calm - N/A   Clear
11:02 PM 66.2 °F - 66.2 °F 100% 30.12 in 3.0 mi Calm Calm - N/A   Clear
11:11 PM 66.2 °F - 64.4 °F 94% 30.12 in 1.8 mi Calm Calm - N/A   Clear
11:34 PM 64.4 °F - 64.4 °F 100% 30.12 in 0.5 mi Calm Calm - N/A Fog Fog
11:53 PM 64.9 °F - 64.0 °F 97% 30.11 in 0.8 mi Calm Calm - N/A   Clear